This demonstration page uses our WeatherBlox Daily Observations layout. Learn more.

Left ArrowRight Arrow

53.62937, 11.41316

Hourly Observations for January 5, 2018

Temp ( °F °C ) Dew Point ( °F °C ) Humidity (%) Winds ( mph kmh ) Pressure ( in mb ) Visibility ( mi km ) Precip ( " mm )
7:50 am 07:50 Mostly Cloudy 45 7 36 2 71 71 SW 23 37 29.23 990 30 48 N/A
8:20 am 08:20 Mostly Cloudy 45 7 36 2 71 71 SW 24 39 29.21 989 30 48 N/A
8:50 am 08:50 Mostly Cloudy 45 7 36 2 71 71 SW 22 35 29.23 990 30 48 N/A
9:20 am 09:20 Partly Cloudy 43 6 36 2 76 76 SW 22 35 29.23 990 30 48 N/A
9:50 am 09:50 Mostly Cloudy 45 7 36 2 71 71 SW 20 31 29.26 991 30 48 N/A
10:20 am 10:20 Mostly Cloudy 45 7 37 3 76 76 SW 23 37 29.26 991 30 48 N/A
10:50 am 10:50 Partly Cloudy 45 7 36 2 71 71 WSW 23 37 29.26 991 30 48 N/A
11:20 am 11:20 Mostly Cloudy 45 7 36 2 71 71 SW 22 35 29.26 991 30 48 N/A
11:50 am 11:50 Mostly Cloudy 45 7 36 2 71 71 WSW 21 33 29.26 991 30 48 N/A
12:20 pm 12:20 Mostly Cloudy 45 7 36 2 71 71 WSW 21 33 29.29 992 30 48 N/A
12:50 pm 12:50 Mostly Cloudy 45 7 37 3 76 76 WSW 21 33 29.29 992 30 48 N/A
1:20 pm 13:20 Mostly Cloudy 43 6 37 3 81 81 WSW 18 30 29.32 993 30 48 N/A
1:50 pm 13:50 Mostly Cloudy with Light Rain 43 6 39 4 87 87 W 15 24 29.35 994 30 48 N/A
2:20 pm 14:20 Mostly Cloudy 43 6 39 4 87 87 WSW 16 26 29.35 994 30 48 N/A
2:50 pm 14:50 Mostly Cloudy 43 6 39 4 87 87 W 13 20 29.38 995 30 48 N/A
3:20 pm 15:20 Mostly Cloudy 43 6 39 4 87 87 W 9 15 29.38 995 30 48 N/A
3:50 pm 15:50 Mostly Cloudy 43 6 39 4 87 87 WSW 9 15 29.38 995 30 48 N/A
4:20 pm 16:20 Cloudy 43 6 37 3 81 81 SW 8 13 29.41 996 30 48 N/A
4:50 pm 16:50 Cloudy 43 6 37 3 81 81 WSW 13 20 29.41 996 30 48 N/A
5:20 pm 17:20 Cloudy 43 6 37 3 81 81 WSW 12 19 29.44 997 30 48 N/A
5:50 pm 17:50 Cloudy 43 6 37 3 81 81 WSW 9 15 29.44 997 30 48 N/A

Powered by AerisWeather